When you browse on this site, cookies collect data to enhance your experience and personalize the content and advertising you see.
Visit our Privacy Policy to learn more. By continuing to use the site, you agree to this use of cookies and data.
  • In Sweden
  • List of Countries
  • For 7 days
  • Water Temperature
  • Satellite Maps
  • Weather Map
  • Weather Widgets
  • user-avatar
    Login

    Hourly Weather Omelyaniv

    Today, 22 April, Monday

    Time Temperature Precipitation Wind Pressure Humidity
    00:00 +10°C° 0 mm 2 mps 758 mmHg 53%
    01:00 +9°C° 0 mm 2 mps 759 mmHg 53%
    02:00 +9°C° 0 mm 2 mps 759 mmHg 54%
    03:00 +8°C° 0 mm 2 mps 759 mmHg 54%
    04:00 +8°C° 0 mm 2 mps 759 mmHg 55%
    05:00 +7°C° 0 mm 2 mps 759 mmHg 55%
    06:00 +9°C° 0 mm 2 mps 759 mmHg 53%
    07:00 +10°C° 0 mm 2 mps 760 mmHg 51%
    08:00 +13°C° 0 mm 2 mps 760 mmHg 49%
    09:00 +13°C° 0 mm 3 mps 760 mmHg 44%
    10:00 +14°C° 0 mm 3 mps 760 mmHg 38%
    11:00 +16°C° 0 mm 3 mps 760 mmHg 32%
    12:00 +16°C° 0 mm 3 mps 760 mmHg 32%
    13:00 +16°C° 0 mm 3 mps 760 mmHg 32%
    14:00 +17°C° 0 mm 3 mps 760 mmHg 32%
    15:00 +16°C° 0 mm 3 mps 760 mmHg 34%
    16:00 +16°C° 0 mm 2 mps 761 mmHg 36%
    17:00 +16°C° 0 mm 2 mps 761 mmHg 38%
    18:00 +15°C° 0 mm 2 mps 761 mmHg 41%
    19:00 +14°C° 0 mm 2 mps 761 mmHg 43%
    20:00 +13°C° 0 mm 1 mps 761 mmHg 46%
    21:00 +12°C° 0 mm 1 mps 761 mmHg 47%
    22:00 +12°C° 0 mm 1 mps 762 mmHg 48%
    23:00 +11°C° 0 mm 1 mps 762 mmHg 49%

    Tomorrow, 23 April, Tuesday

    Time Temperature Precipitation Wind Pressure Humidity
    00:00 +10°C° 0 mm 1 mps 762 mmHg 50%
    01:00 +10°C° 0 mm 1 mps 762 mmHg 51%
    02:00 +9°C° 0 mm 1 mps 762 mmHg 52%
    03:00 +9°C° 0 mm 1 mps 762 mmHg 52%
    04:00 +9°C° 0 mm 1 mps 762 mmHg 53%
    05:00 +8°C° 0 mm 1 mps 763 mmHg 53%
    06:00 +10°C° 0 mm 1 mps 763 mmHg 50%
    07:00 +12°C° 0 mm 1 mps 763 mmHg 48%
    08:00 +14°C° 0 mm 1 mps 763 mmHg 45%
    09:00 +15°C° 0 mm 2 mps 763 mmHg 40%
    10:00 +16°C° 0 mm 2 mps 763 mmHg 35%
    11:00 +17°C° 0 mm 2 mps 763 mmHg 30%
    12:00 +17°C° 0 mm 2 mps 763 mmHg 31%
    13:00 +18°C° 0 mm 2 mps 763 mmHg 32%
    14:00 +18°C° 0 mm 2 mps 762 mmHg 32%
    15:00 +18°C° 0 mm 2 mps 762 mmHg 34%
    16:00 +17°C° 0 mm 2 mps 762 mmHg 36%
    17:00 +17°C° 0 mm 2 mps 762 mmHg 37%
    18:00 +16°C° 0 mm 2 mps 762 mmHg 41%
    19:00 +14°C° 0 mm 1 mps 762 mmHg 45%
    20:00 +13°C° 0 mm 1 mps 762 mmHg 49%
    21:00 +13°C° 0 mm 1 mps 762 mmHg 51%
    22:00 +12°C° 0 mm 1 mps 762 mmHg 52%
    23:00 +12°C° 0 mm 2 mps 763 mmHg 54%

    Day after tomorrow, 24 April, Wednesday

    Time Temperature Precipitation Wind Pressure Humidity
    00:00 +10°C° 0 mm 2 mps 763 mmHg 57%
    01:00 +10°C° 0 mm 2 mps 763 mmHg 60%
    02:00 +10°C° 0 mm 1 mps 763 mmHg 63%
    03:00 +10°C° 0 mm 1 mps 763 mmHg 62%
    04:00 +11°C° 0 mm 1 mps 763 mmHg 62%
    05:00 +11°C° 0 mm 1 mps 763 mmHg 61%
    06:00 +12°C° 0 mm 1 mps 763 mmHg 59%
    07:00 +14°C° 0 mm 2 mps 763 mmHg 56%
    08:00 +15°C° 0 mm 2 mps 763 mmHg 53%
    09:00 +16°C° 0 mm 2 mps 763 mmHg 48%
    10:00 +17°C° 0 mm 3 mps 763 mmHg 43%
    11:00 +18°C° 0 mm 3 mps 763 mmHg 38%
    12:00 +19°C° 0 mm 3 mps 763 mmHg 38%
    13:00 +19°C° 0 mm 4 mps 763 mmHg 38%
    14:00 +19°C° 0 mm 4 mps 763 mmHg 38%
    15:00 +19°C° 0 mm 3 mps 762 mmHg 39%
    16:00 +19°C° 0 mm 3 mps 762 mmHg 41%
    17:00 +18°C° 0 mm 3 mps 762 mmHg 42%
    18:00 +17°C° 0 mm 3 mps 762 mmHg 47%
    19:00 +15°C° 0 mm 2 mps 762 mmHg 51%
    20:00 +13°C° 0 mm 2 mps 762 mmHg 55%
    21:00 +13°C° 0 mm 2 mps 762 mmHg 56%
    22:00 +12°C° 0 mm 2 mps 762 mmHg 57%
    23:00 +12°C° 0 mm 2 mps 762 mmHg 58%

    25 April, Thursday

    Time Temperature Precipitation Wind Pressure Humidity
    00:00 +10°C° 0 mm 2 mps 762 mmHg 58%
    01:00 +10°C° 0 mm 2 mps 762 mmHg 59%
    02:00 +10°C° 0 mm 2 mps 763 mmHg 59%
    03:00 +9°C° 0 mm 2 mps 763 mmHg 60%
    04:00 +9°C° 0 mm 2 mps 763 mmHg 61%
    05:00 +9°C° 0 mm 2 mps 763 mmHg 62%
    06:00 +10°C° 0 mm 2 mps 763 mmHg 60%
    07:00 +13°C° 0 mm 2 mps 763 mmHg 57%
    08:00 +15°C° 0 mm 2 mps 763 mmHg 54%
    09:00 +16°C° 0 mm 3 mps 763 mmHg 49%
    10:00 +18°C° 0 mm 3 mps 763 mmHg 44%
    11:00 +19°C° 0 mm 3 mps 763 mmHg 40%
    12:00 +20°C° 0 mm 3 mps 762 mmHg 39%
    13:00 +20°C° 0 mm 3 mps 762 mmHg 38%
    14:00 +21°C° 0 mm 3 mps 762 mmHg 37%
    15:00 +20°C° 0 mm 3 mps 761 mmHg 39%
    16:00 +20°C° 0 mm 3 mps 761 mmHg 41%
    17:00 +20°C° 0 mm 3 mps 760 mmHg 43%
    18:00 +18°C° 0 mm 3 mps 760 mmHg 47%
    19:00 +17°C° 0 mm 2 mps 761 mmHg 51%
    20:00 +15°C° 0 mm 2 mps 761 mmHg 55%
    21:00 +14°C° 0 mm 2 mps 760 mmHg 56%
    22:00 +14°C° 0 mm 2 mps 760 mmHg 58%
    23:00 +13°C° 0 mm 2 mps 760 mmHg 59%

    26 April, Friday

    Time Temperature Precipitation Wind Pressure Humidity
    00:00 +13°C° 0 mm 2 mps 760 mmHg 61%
    01:00 +12°C° 0 mm 2 mps 760 mmHg 63%
    02:00 +12°C° 0 mm 2 mps 760 mmHg 65%
    03:00 +10°C° 0 mm 2 mps 760 mmHg 66%
    04:00 +10°C° 0 mm 2 mps 760 mmHg 68%
    05:00 +11°C° 0 mm 1 mps 760 mmHg 70%
    06:00 +13°C° 0 mm 2 mps 760 mmHg 66%
    07:00 +14°C° 0 mm 2 mps 760 mmHg 61%
    08:00 +16°C° 0 mm 2 mps 760 mmHg 57%
    09:00 +18°C° 0 mm 3 mps 759 mmHg 52%
    10:00 +19°C° 0 mm 4 mps 759 mmHg 47%
    11:00 +21°C° 0 mm 5 mps 759 mmHg 43%
    12:00 +21°C° 0 mm 5 mps 758 mmHg 42%
    13:00 +22°C° 0 mm 5 mps 758 mmHg 42%
    14:00 +22°C° 0 mm 5 mps 757 mmHg 42%
    15:00 +22°C° 0 mm 5 mps 757 mmHg 44%
    16:00 +21°C° 0 mm 4 mps 757 mmHg 46%
    17:00 +21°C° 0 mm 4 mps 756 mmHg 47%
    18:00 +19°C° 0 mm 3 mps 756 mmHg 52%
    19:00 +18°C° 0 mm 3 mps 756 mmHg 56%
    20:00 +16°C° 0 mm 2 mps 756 mmHg 60%
    21:00 +16°C° 0 mm 2 mps 756 mmHg 62%
    22:00 +15°C° 0 mm 2 mps 756 mmHg 64%
    23:00 +14°C° 0 mm 2 mps 756 mmHg 65%

    27 April, Saturday

    Time Temperature Precipitation Wind Pressure Humidity
    00:00 +14°C° 0 mm 2 mps 756 mmHg 67%
    01:00 +14°C° 0 mm 2 mps 756 mmHg 69%
    02:00 +13°C° 0 mm 2 mps 756 mmHg 71%
    03:00 +13°C° 0 mm 2 mps 756 mmHg 72%
    04:00 +13°C° 0 mm 2 mps 756 mmHg 74%
    05:00 +12°C° 0 mm 2 mps 756 mmHg 75%
    06:00 +14°C° 0 mm 2 mps 756 mmHg 71%
    07:00 +16°C° 0 mm 3 mps 756 mmHg 66%
    08:00 +17°C° 0 mm 3 mps 756 mmHg 62%
    09:00 +19°C° 0 mm 4 mps 756 mmHg 56%
    10:00 +20°C° 0 mm 5 mps 755 mmHg 51%
    11:00 +22°C° 0 mm 5 mps 755 mmHg 45%
    12:00 +22°C° 0 mm 5 mps 755 mmHg 43%
    13:00 +23°C° 0 mm 5 mps 755 mmHg 41%
    14:00 +23°C° 0 mm 5 mps 754 mmHg 40%
    15:00 +23°C° 0 mm 5 mps 754 mmHg 42%
    16:00 +23°C° 0 mm 4 mps 754 mmHg 44%
    17:00 +24°C° 0 mm 3 mps 754 mmHg 47%
    18:00 +21°C° 0 mm 3 mps 754 mmHg 50%
    19:00 +20°C° 0 mm 3 mps 754 mmHg 54%
    20:00 +18°C° 0 mm 3 mps 754 mmHg 58%
    21:00 +18°C° 0 mm 3 mps 754 mmHg 59%
    22:00 +17°C° 0 mm 3 mps 754 mmHg 60%
    23:00 +17°C° 0 mm 3 mps 754 mmHg 61%
    Show more